Muskegon, MI

2:39 AM EDT on September 26, 2017 (GMT -0400)
Muskegon County

Weather History for KMKG - May, 2013

Change the Weather History Date:

Saturday, May 4, 2013

  Actual Average Record
Temperature  
Mean Temperature 67 °F 53 °F  
Max Temperature 76 °F 63 °F 84 °F (1999)
Min Temperature 57 °F 43 °F 26 °F (1966)
Degree Days  
Heating Degree Days 0 12  
Month to date heating degree days 2 50  
Since 1 July heating degree days 6092 6268  
Cooling Degree Days 2 0  
Month to date cooling degree days 10 0  
Year to date cooling degree days 14 4  
Growing Degree Days 16 (Base 50)    
Moisture  
Dew Point 41 °F    
Average Humidity 42    
Maximum Humidity 57    
Minimum Humidity 27    
Precipitation  
Precipitation 0.00 in 0.11 in 0.93 in (1990)
Month to date precipitation 0.15 0.41  
Year to date precipitation 18.27 9.43  
Snow  
Snow 0.00 in 0.00 in 0.30 in (1954)
Month to date snowfall 0.0 0.0  
Since 1 July snowfall 98.6 93.7  
Snow Depth 0.00 in    
Sea Level Pressure  
Sea Level Pressure 30.03 in    
Wind  
Wind Speed 10 mph (ESE)    
Max Wind Speed 23 mph    
Max Gust Speed 28 mph    
Visibility 10 miles    
Events      
T = Trace of Precipitation, MM = Missing Value Source: NWS Daily Summary

Daily Weather History Graph

Daily Weather History Graph

Search for Another Location

Airport or City:

Trip Planner

Search our weather history database for the weather conditions in past years. The results will help you decide how hot, cold, wet, or windy it might be!

Date:

Astronomy

May. 04, 2013 Rise Set
Actual Time 6:34 AM EDT 8:50 PM EDT
Civil Twilight 6:02 AM EDT 9:21 PM EDT
Nautical Twilight 5:23 AM EDT 10:00 PM EDT
Astronomical Twilight 4:40 AM EDT 10:44 PM EDT
Moon 3:40 AM EDT (5/4) 3:39 PM EDT (5/4)
Length of Visible Light 15h 19m
Length of Day
14h 16m
Waning Crescent, 27% of the Moon is Illuminated
May 4
Waning Crescent
May 9
New
May 18
First Quarter
May 25
Full
May 31
Last Quarter

Hourly Weather History & Observations

Time (EDT) Temp. Dew Point Humidity Pressure Visibility Wind Dir Wind Speed Gust Speed Precip Events Conditions
12:55 AM 64.9 °F 39.0 °F 39% 30.01 in 10.0 mi East 8.1 mph - N/A   Clear
1:55 AM 61.0 °F 41.0 °F 48% 30.01 in 10.0 mi ESE 5.8 mph - N/A   Clear
2:55 AM 61.0 °F 39.0 °F 44% 30.01 in 10.0 mi East 3.5 mph - N/A   Clear
3:55 AM 57.9 °F 41.0 °F 53% 30.02 in 10.0 mi ESE 5.8 mph - N/A   Clear
4:55 AM 57.9 °F 42.1 °F 56% 30.03 in 10.0 mi East 5.8 mph - N/A   Clear
5:55 AM 57.9 °F 41.0 °F 53% 30.03 in 10.0 mi East 6.9 mph - N/A   Clear
6:55 AM 57.9 °F 41.0 °F 53% 30.04 in 10.0 mi ESE 8.1 mph - N/A   Clear
7:55 AM 59.0 °F 43.0 °F 55% 30.05 in 10.0 mi ESE 6.9 mph - N/A   Clear
8:55 AM 63.0 °F 44.1 °F 50% 30.06 in 10.0 mi ESE 10.4 mph - N/A   Clear
9:55 AM 64.9 °F 45.0 °F 48% 30.06 in 10.0 mi ESE 11.5 mph - N/A   Clear
10:55 AM 66.9 °F 45.0 °F 45% 30.06 in 10.0 mi ESE 10.4 mph - N/A   Clear
11:55 AM 70.0 °F 45.0 °F 41% 30.06 in 10.0 mi ESE 10.4 mph - N/A   Clear
12:55 PM 73.0 °F 46.0 °F 38% 30.05 in 10.0 mi East 10.4 mph - N/A   Clear
1:55 PM 75.0 °F 46.0 °F 36% 30.03 in 10.0 mi ENE 12.7 mph - N/A   Partly Cloudy
2:55 PM 75.0 °F 43.0 °F 32% 30.02 in 10.0 mi ESE 13.8 mph - N/A   Partly Cloudy
3:55 PM 75.0 °F 43.0 °F 32% 30.01 in 10.0 mi ESE 13.8 mph - N/A   Partly Cloudy
4:55 PM 75.9 °F 41.0 °F 29% 30.00 in 10.0 mi East 15.0 mph - N/A   Partly Cloudy
5:55 PM 75.0 °F 39.9 °F 28% 30.00 in 10.0 mi SE 12.7 mph - N/A   Partly Cloudy
6:55 PM 73.9 °F 39.9 °F 29% 30.00 in 10.0 mi ESE 15.0 mph 19.6 mph N/A   Partly Cloudy
7:55 PM 72.0 °F 37.9 °F 29% 30.01 in 10.0 mi East 12.7 mph - N/A   Partly Cloudy
8:55 PM 69.1 °F 37.0 °F 31% 30.03 in 10.0 mi East 9.2 mph - N/A   Partly Cloudy
9:55 PM 66.0 °F 35.1 °F 32% 30.05 in 10.0 mi East 8.1 mph - N/A   Clear
10:55 PM 62.1 °F 37.0 °F 39% 30.07 in 10.0 mi East 5.8 mph - N/A   Clear
11:55 PM 57.9 °F 37.9 °F 47% 30.08 in 10.0 mi East 4.6 mph - N/A   Clear